sat.trackr.live / text

‹ back to catalog

STARLINK-32725

NORAD 62505 · 2025-003U

PAYLOAD ACTIVE UNKNOWN

§ Identity

Operator
Country
US
Launch date
2025-01-06
Launch site
AFETR
Launch vehicle
Mass (kg)
RCS (m²)

Purposes: comms

External: N2YO · Heavens-Above · Gunter

§ Orbital elements

Epoch: 2026-09-21T08:58:21.239616Z

Period
94.27 min
Inclination
43.0011°
Eccentricity
0.0001276
Mean motion
15.27594308 rev/d
Perigee alt
482.1 km
Apogee alt
483.9 km
Semi-major
6,861.1 km
B*
4.9718e-4
RAAN
263.4236°
Arg perigee
277.6897°
Mean anomaly
82.3810°
Rev number
9,648

§ Raw data

STARLINK-327251 62505U 25003U   26264.37385694  .00013450  00000+0  49718-3 0  99972 62505  43.0011 263.4236 0001276 277.6897  82.3810 15.27594308 96480

JSON: /api/v1/satellites/62505 · /tle

For live sub-satellite position, see the globe view (requires WebGL).

§ Visibility from observer

Set your observer location to see the next 7 days of passes ≥ 10°. The values pass through the URL so the page stays shareable.

No JS? Fill the form by hand. The geolocation button needs JavaScript.